Weather History for Morrisville, VT

Change the Weather History Date:

Monday, October 15, 2012

  Actual Average Record
Temperature  
Mean Temperature 59 °F 46 °F  
Max Temperature 68 °F 57 °F 78 °F (2014)
Min Temperature 49 °F 35 °F 21 °F (2002)
Degree Days  
Heating Degree Days 6 19  
Month to date heating degree days 218 248  
Since 1 July heating degree days 504 580  
Cooling Degree Days 0 0  
Month to date cooling degree days 0 0  
Year to date cooling degree days 408 265  
Growing Degree Days 8 (Base 50)    
Moisture  
Dew Point 53 °F    
Average Humidity 84    
Maximum Humidity 100    
Minimum Humidity 68    
Precipitation  
Precipitation 0.39 in 0.09 in 1.27 in (2003)
Month to date precipitation 1.75 1.61  
Year to date precipitation 15.30 28.74  
Sea Level Pressure  
Sea Level Pressure 29.65 in    
Wind  
Wind Speed 1 mph (SE)    
Max Wind Speed 9 mph    
Max Gust Speed 14 mph    
T = Trace of Precipitation, MM = Missing Value Source: NWS Daily Summary

Daily Weather History Graph

Daily Weather History Graph

Search for Another Location

Airport:

Trip Planner

Search our weather history database for the weather conditions in past years. The results will help you decide how hot, cold, wet, or windy it might be!

Date:

Astronomy

Oct. 15, 2012 Rise Set
Actual Time 7:06 AM EDT 6:05 PM EDT
Civil Twilight 6:36 AM EDT 6:34 PM EDT
Nautical Twilight 6:03 AM EDT 7:08 PM EDT
Astronomical Twilight 5:29 AM EDT 7:41 PM EDT
Moon 7:15 AM EDT (10/15) 5:59 PM EDT (10/15)
Length of Visible Light 11h 57m
Length of Day
10h 59m
New Moon, 0% of the Moon is Illuminated
Oct 15
New Moon
Oct 21
First Quarter
Oct 29
Full
Nov 6
Last Quarter
Nov 13
New

Hourly Weather History & Observations

Time (EDT) Temp. Dew Point Humidity Pressure Visibility Wind Dir Wind Speed Gust Speed Precip Events Conditions
12:54 AM 50.0 °F 48.0 °F 93% 29.79 in - Calm Calm - N/A   Clear
1:54 AM 50.0 °F 48.0 °F 93% 29.78 in - Calm Calm - N/A   Clear
2:54 AM 51.1 °F 50.0 °F 96% 29.75 in - Calm Calm - N/A   Mostly Cloudy
3:54 AM 54.0 °F 50.0 °F 86% 29.73 in - Calm Calm - N/A   Clear
4:54 AM 53.1 °F 50.0 °F 89% 29.70 in - Calm Calm - N/A   Clear
5:54 AM 52.0 °F 50.0 °F 93% 29.68 in - Calm Calm - N/A   Partly Cloudy
6:54 AM 52.0 °F 48.9 °F 89% 29.67 in - Calm Calm - N/A   Mostly Cloudy
7:54 AM 55.9 °F 50.0 °F 80% 29.68 in - Calm Calm - N/A   Overcast
8:54 AM 55.9 °F 51.1 °F 84% 29.68 in - ESE 4.6 mph - N/A   Partly Cloudy
9:54 AM 61.0 °F 52.0 °F 72% 29.66 in - East 5.8 mph - N/A   Clear
10:54 AM 62.1 °F 54.0 °F 75% 29.65 in - Calm Calm - N/A   Mostly Cloudy
11:54 AM 64.0 °F 55.0 °F 73% 29.63 in - Calm Calm - N/A   Overcast
12:54 PM 63.0 °F 55.0 °F 75% 29.62 in - Calm Calm - N/A   Overcast
1:54 PM 63.0 °F 57.0 °F 81% 29.60 in - Calm Calm - N/A   Overcast
2:54 PM 66.9 °F 55.0 °F 66% 29.59 in - SSW 5.8 mph - N/A   Overcast
3:54 PM 66.9 °F 55.0 °F 66% 29.58 in - SSW 3.5 mph - N/A   Overcast
4:54 PM 57.9 °F 54.0 °F 87% 29.60 in - NE 9.2 mph - 0.01 in Rain Light Rain
5:54 PM 55.9 °F 54.0 °F 93% 29.62 in - Calm Calm - 0.35 in Rain Heavy Rain
6:19 PM 55.4 °F 53.6 °F 94% 29.61 in - Calm Calm - 0.03 in Rain Light Rain
6:34 PM 55.4 °F 53.6 °F 94% 29.61 in - Calm Calm - 0.03 in   Overcast
6:54 PM 55.9 °F 54.0 °F 93% 29.62 in - Calm Calm - 0.03 in   Overcast
7:54 PM 55.0 °F 54.0 °F 96% 29.63 in - Calm Calm - N/A   Overcast
8:17 PM 53.6 °F 53.6 °F 100% 29.63 in - Calm Calm - N/A   Overcast
8:54 PM 54.0 °F 53.1 °F 97% 29.64 in - Calm Calm - N/A   Overcast
9:13 PM 53.6 °F 53.6 °F 100% 29.63 in - Calm Calm - N/A   Overcast
9:20 PM 53.6 °F 53.6 °F 100% 29.62 in - Calm Calm - N/A   Overcast
9:52 PM 53.6 °F 53.6 °F 100% 29.62 in - Calm Calm - N/A   Overcast
9:54 PM 54.0 °F 53.1 °F 97% 29.63 in - Calm Calm - N/A   Overcast
10:54 PM 54.0 °F 53.1 °F 97% 29.63 in - Calm Calm - N/A   Overcast
11:50 PM 53.6 °F 51.8 °F 94% 29.61 in - Calm Calm - N/A   Overcast
11:54 PM 52.0 °F 51.1 °F 97% 29.62 in - Calm Calm - N/A   Overcast